Flag for Slovenia Weather past 2 weeks in Maribor, Slovenia

Now
45 °F

Cool.


Feels Like: 45 °F
Forecast: 39 / 55 °F
Wind: 2 mph from North

Location: Maribor / Slivnica

Current Time: Oct 25, 2014 at 2:56:12 AM

Latest Report: Oct 25, 2014 at 1:00 AM


Visibility: N/A

Pressure: 30.22 "Hg

Humidity: 90%

Dew point: 42 °F

Location of MariborLocation

Historic Weather in Maribor — Graph

°F

Maribor temperature yesterday

Maximum temperature yesterday: 53 °F (at 4:00 AM)
Minimum temperature yesterday: 45 °F (at 11:00 PM)
Average temperature yesterday: 50 °F

Past Weeks' High & Low Weather Summary

 TemperatureHumidityPressure
High78 °F (Oct 10, 2:00 PM)99% (Oct 19, 6:00 AM)30.34 "Hg (Oct 19, 6:00 AM)
Low40 °F (Oct 22, 7:00 AM)39% (Oct 14, 3:00 PM)29.58 "Hg (Oct 22, 1:00 AM)
Average60 °F77%29.94 "Hg
* Reported Oct 10 1:00 AM — Oct 25 1:00 AM, Maribor, Weather by CustomWeather, © 2014

Note: Actual official high and low records may vary slightly from our data, if they occured in-between our weather recording intervals... More about our weather records

Advertising

Maribor weather history for previous 24 hours

 ConditionsComfort  
Time TempWeatherWind HumidityBarometerVisibility
1:00 AM
Oct 25
45 °FCool.2 mph90%30.22 "HgN/A
12:00 AM45 °FDrizzle. Overcast.2 mph92%30.21 "HgN/A
11:00 PM
Oct 24
45 °FDrizzle. Overcast.2 mph92%30.20 "HgN/A
10:00 PM46 °FLight rain. Overcast.1 mph92%30.19 "Hg4 mi
9:00 PM46 °FDrizzle. Overcast.2 mph93%30.16 "Hg5 mi
8:00 PM47 °FOvercast.2 mph88%30.14 "Hg6 mi
7:00 PM48 °FOvercast.3 mph80%30.12 "Hg9 mi
6:00 PMN/APassing clouds.N/AN/AN/A1 mi
5:00 PM49 °FOvercast.3 mph78%30.09 "Hg12 mi
4:00 PM49 °FOvercast.2 mph79%30.08 "Hg12 mi
3:00 PM49 °FOvercast.3 mph79%30.07 "Hg16 mi
2:00 PM50 °FLight rain. Overcast.5 mph75%30.06 "Hg16 mi
1:00 PM51 °FOvercast.3 mph72%30.05 "Hg25 mi
12:00 PM51 °FCool.5 mph74%30.05 "HgN/A
11:00 AM51 °FOvercast.6 mph74%30.03 "Hg25 mi
10:00 AM50 °FOvercast.5 mph75%30.02 "Hg25 mi
9:00 AM50 °FOvercast.5 mph74%30.01 "Hg25 mi
8:00 AM51 °FOvercast.3 mph73%29.98 "Hg25 mi
7:00 AM52 °FCool.5 mph67%29.95 "HgN/A
6:00 AM53 °FOvercast.5 mph64%29.93 "Hg12 mi
5:00 AM53 °FCool.8 mph67%29.90 "HgN/A
4:00 AM53 °FCool.6 mph67%29.90 "HgN/A
3:00 AM52 °FCool.8 mph69%29.89 "HgN/A
2:00 AM52 °FCool.7 mph72%29.89 "HgN/A
Weather by CustomWeather, © 2014

See weather overviewHow to use our weather pages